Location: ????????
(42.0488°N, 44.0407°E)
Time: 05:34:58
(UTC+00:00)

Lacrosse 5 rocket - Pass Details

Date: 07 June 2020
Orbit: 461 x 635 km, 57.0° (Epoch: 03 July)

Event Time Altitude Azimuth Distance (km) Brightness Sun altitude
Exits shadow 00:06:22 10° 177° (S) 1,812 3.5 -12.5°
Reaches altitude 10° 00:06:23 10° 177° (S) 1,807 3.5 -12.5°
Maximum altitude 00:09:35 22° 125° (SE) 1,172 3.1 -12.1°
Drops below altitude 10° 00:12:39 10° 73° (ENE) 1,733 4.9 -11.7°
Sets 00:15:06 0° 58° (ENE) 2,591 6.5 -11.4°
